Theta_e
286 284 281 281 283 283 281 280 278 281 285 285 283 284 287 289 289 292 293 294 294 296 299 301 300 300 304 322 325 329 328 328 328 326 325 324 323 324 325 326 326 325 325 324
282 280 284 286 285 284 282 281 279 282 285 286 283 284 287 288 289 292 293 294 294 296 298 301 302 299 307 320 322 327 328 328 328 328 327 327 325 326 327 327 326 326 325 324
280 283 287 285 283 283 282 281 280 281 285 284 283 281 283 289 289 291 294 295 296 296 297 300 304 305 307 320 320 324 328 328 328 328 327 324 326 323 323 324 324 325 324 325
282 285 284 283 283 283 280 284 285 284 281 276 283 273 281 287 287 288 291 293 293 295 298 299 301 305 307 319 323 322 326 329 328 328 326 325 323 322 324 325 325 326 325 325
281 282 283 282 284 285 282 285 285 285 281 276 280 274 279 286 283 285 289 291 292 294 296 298 299 303 313 318 321 323 323 325 327 328 327 325 324 325 325 325 325 324 324 325
282 285 284 284 285 285 287 284 283 283 280 271 279 277 275 281 282 285 288 290 292 293 295 298 299 302 308 317 321 322 321 322 324 325 325 324 323 323 322 322 322 323 321 318
278 280 284 286 283 285 283 279 271 269 269 271 279 276 278 285 286 285 287 288 291 293 295 296 297 299 301 309 315 320 319 319 321 322 323 322 319 317 315 315 314 314 314 315
270 271 280 285 284 283 282 281 271 264 267 272 279 274 280 286 287 288 288 289 291 291 293 295 296 298 300 306 312 318 318 318 319 319 318 317 316 315 316 315 313 312 313 314
270 273 281 285 285 286 281 280 285 279 273 274 275 279 284 287 285 285 286 287 288 290 292 293 294 297 301 307 313 314 314 314 314 313 312 312 312 311 312 312 314 314 314 313
280 273 279 283 284 284 284 285 277 277 267 264 273 275 278 281 281 283 283 285 287 289 291 292 293 296 300 305 308 309 308 308 309 309 309 306 306 305 305 306 305 305 305 306
282 277 277 281 279 279 280 281 282 281 278 272 270 274 282 280 282 281 283 285 287 288 290 292 293 295 298 299 303 304 305 305 304 304 304 302 301 301 301 300 300 299 299 300
281 280 272 275 279 281 281 280 280 275 273 276 277 275 283 282 283 283 283 285 287 289 291 292 295 295 294 297 297 299 299 300 301 301 300 299 299 298 298 297 297 297 296 296
283 274 264 272 279 279 278 281 281 280 279 276 273 273 283 283 283 283 282 284 286 288 289 290 292 292 292 292 294 294 295 296 298 298 298 296 296 295 294 293 294 293 293 293
285 277 273 269 274 277 276 276 279 279 276 275 276 276 278 280 280 281 282 284 286 286 287 288 289 289 289 289 290 291 291 292 293 293 292 291 291 291 291 292 291 291 291 291
278 266 275 276 277 277 277 277 278 277 278 275 276 275 278 279 279 279 281 285 285 285 285 286 286 287 287 287 287 289 290 290 291 290 290 290 290 291 291 291 290 290 290 290
277 266 269 264 275 276 275 277 277 278 278 276 276 276 281 281 279 279 281 283 284 284 284 285 285 285 286 286 286 286 287 288 289 288 288 288 289 289 289 289 289 289 289 289
271 265 262 261 270 271 264 272 277 278 277 278 274 278 280 279 280 279 280 281 282 283 283 283 284 284 285 285 286 285 285 286 286 287 287 287 287 287 287 287 287 287 287 287
270 264 260 261 260 259 272 275 278 278 277 279 280 280 281 281 279 281 282 282 282 283 283 283 284 284 285 285 285 285 285 284 284 284 284 285 286 286 286 286 285 286 285 285
278 272 261 262 253 266 272 275 277 277 276 280 280 280 281 281 280 279 283 284 284 284 284 284 284 284 284 284 284 284 283 283 283 282 282 283 284 284 284 284 284 284 285 284
278 276 267 265 258 259 271 278 280 279 270 280 282 281 280 281 276 277 285 286 287 288 287 285 285 284 283 283 283 281 280 280 280 281 282 283 283 283 283 283 284 284 284 284
274 271 263 266 261 265 273 279 280 267 272 280 282 282 281 279 280 283 289 289 288 287 287 287 285 282 280 281 283 280 278 277 278 280 281 281 282 282 282 282 283 283 283 283
269 267 265 259 258 263 276 278 275 278 281 283 282 282 282 283 286 288 289 287 286 283 282 283 281 279 278 277 279 278 275 275 276 278 278 278 278 280 280 280 280 279 281 279
270 272 269 270 270 278 279 280 281 283 282 282 282 283 285 286 286 287 285 284 282 281 281 280 279 278 275 274 274 275 272 273 274 275 274 275 275 277 277 278 278 278 278 278
274 276 273 273 276 277 279 280 282 282 283 284 284 284 285 286 286 285 284 283 282 281 280 277 276 275 273 271 270 269 269 269 269 270 271 273 272 273 274 275 277 277 277 277
275 277 275 273 278 278 280 281 283 282 282 283 283 284 285 285 283 284 284 282 282 281 277 274 273 272 270 269 267 264 265 266 269 270 270 271 271 270 271 273 274 276 278 278
275 275 276 275 280 280 280 283 283 283 282 282 283 282 283 284 284 283 282 282 278 276 272 271 270 268 265 264 263 261 260 262 262 268 269 269 269 269 270 269 271 277 280 283
Wind_Speed
6 12 7 4 4 1 1 1 4 4 4 10 4 8 12 12 7 14 16 16 19 21 20 19 18 14 11 11 14 16 15 15 11 9 9 8 8 8 6 7 10 11 10 11
8 6 1 2 3 1 0 2 5 6 5 4 6 15 6 7 7 12 18 17 20 21 21 21 18 11 10 12 15 16 15 14 14 10 9 6 9 7 8 7 9 11 11 11
8 1 1 4 5 5 1 2 3 6 9 1 7 6 4 10 5 13 17 18 18 19 21 22 19 13 12 12 13 15 17 15 14 13 8 4 4 2 4 4 6 9 11 11
6 2 3 3 5 2 1 3 5 6 6 2 5 6 5 17 22 21 20 20 21 21 21 20 19 16 13 13 12 12 13 15 14 14 11 14 9 8 8 9 9 8 12 14
2 2 3 4 2 2 5 0 4 2 1 3 5 2 8 17 23 24 24 21 20 20 20 20 18 17 14 5 6 7 8 9 9 11 9 8 7 4 1 2 4 4 3 3
3 1 1 1 2 3 4 1 3 2 1 3 3 3 6 14 19 21 21 21 20 19 21 20 19 16 14 6 4 7 9 6 5 6 6 6 4 3 3 3 3 2 5 5
6 2 1 1 1 1 6 4 3 6 6 4 2 3 5 16 18 15 19 23 20 17 18 19 19 16 16 12 6 6 9 6 6 7 6 7 9 10 11 8 7 8 5 5
5 5 1 4 2 1 3 3 5 4 2 5 5 2 1 10 12 12 13 17 19 18 15 18 17 14 16 14 7 4 9 9 8 10 12 11 10 7 7 8 5 6 6 6
5 3 2 1 1 0 1 5 1 1 2 2 4 4 6 15 14 18 19 19 22 20 18 19 18 17 16 14 14 14 13 14 14 15 14 12 12 10 9 10 6 5 5 7
4 4 2 0 2 3 4 2 2 2 3 4 4 1 5 18 21 19 21 21 20 21 20 18 18 19 16 14 15 17 17 17 15 16 14 12 14 11 13 11 10 11 11 10
3 3 3 3 2 3 2 2 2 1 1 1 3 3 1 7 11 15 15 17 18 18 19 18 17 15 15 17 15 16 15 17 15 12 13 13 12 12 11 10 9 11 9 10
3 4 2 2 1 1 1 4 2 3 3 3 1 4 3 5 9 10 13 14 15 15 14 14 16 18 20 18 17 14 15 13 11 12 12 13 11 11 9 12 10 9 9 9
5 1 4 6 2 2 2 2 2 1 2 4 2 4 4 13 14 13 12 14 13 15 17 15 16 16 15 16 15 16 14 14 13 13 15 12 10 11 9 10 10 10 11 10
4 2 4 6 5 3 3 3 3 3 3 2 4 7 8 13 13 14 14 13 11 13 15 14 14 14 13 13 14 15 15 15 13 14 13 12 9 9 9 11 13 10 8 10
4 4 0 1 1 1 3 5 4 6 4 5 3 3 3 5 7 8 7 11 10 13 15 15 14 12 12 13 12 12 13 13 10 11 10 8 9 12 11 10 9 8 9 9
2 3 4 5 2 3 4 7 6 5 3 4 4 4 4 2 3 6 8 10 10 10 11 12 13 13 12 12 11 11 12 11 11 13 11 9 10 9 9 9 9 10 9 9
4 6 4 4 4 3 7 9 8 4 2 4 4 2 1 1 4 5 6 7 9 9 9 10 10 10 10 10 9 11 9 8 11 11 10 10 9 9 9 8 8 9 9 9
6 5 3 3 4 2 6 3 2 5 4 7 2 4 4 3 4 3 4 4 7 8 9 9 8 9 9 9 10 8 9 11 11 11 10 10 9 9 8 8 9 9 6 7
4 6 4 5 4 6 3 5 6 7 4 7 6 3 1 2 5 3 3 3 4 5 6 6 6 7 8 10 9 8 10 10 10 11 10 9 8 7 6 8 6 5 4 5
7 8 6 3 5 7 4 4 3 3 4 7 5 2 2 4 3 3 2 1 4 5 5 5 6 4 9 9 8 8 10 10 11 10 8 6 6 7 7 7 5 3 3 3
5 3 5 3 4 10 7 5 4 7 7 6 6 4 4 4 2 5 4 3 4 5 6 4 6 7 8 9 6 8 8 11 9 9 8 9 8 7 7 5 4 5 5 5
8 8 5 4 2 9 8 5 8 5 3 6 6 6 5 6 8 6 6 6 5 4 2 4 4 5 6 9 6 7 9 9 8 8 8 9 9 7 6 6 5 4 4 4
4 8 8 10 9 4 9 2 5 5 7 6 7 7 7 8 8 7 6 6 5 5 3 2 2 3 5 7 8 6 7 8 8 6 6 7 7 7 7 6 6 4 4 3
4 4 3 3 5 8 7 4 3 6 6 6 7 9 9 11 10 9 6 5 5 5 4 3 3 2 3 4 5 4 6 7 5 5 6 5 5 7 6 4 3 3 4 4
5 10 7 5 6 1 5 9 7 6 5 6 6 9 12 9 8 8 6 6 6 5 4 3 4 3 2 2 4 4 5 6 4 4 4 5 4 5 5 5 3 2 2 1
7 9 7 8 8 7 6 14 10 9 9 9 9 6 7 9 9 7 7 5 5 6 4 4 4 4 3 3 2 3 4 4 3 3 4 4 5 5 4 4 4 5 6 8
Wind_Direction
15 63 50 334 338 339 207 257 285 251 293 347 328 301 302 314 320 347 344 337 327 321 317 309 299 271 258 224 210 207 196 194 186 185 183 190 203 204 207 213 213 214 212 209
42 70 276 236 60 65 10 331 342 294 285 333 332 305 288 315 307 350 343 343 330 323 326 323 318 274 249 221 208 206 202 194 190 189 195 193 195 208 210 210 213 216 210 202
99 166 282 101 58 35 38 68 25 316 311 333 317 297 325 348 343 344 347 341 338 332 330 326 321 308 267 217 201 203 201 196 197 193 178 145 148 121 176 204 217 217 213 210
83 4 51 81 85 66 25 138 327 310 353 330 31 294 308 357 352 1 349 349 342 332 331 328 325 319 294 225 203 204 201 198 194 183 181 189 197 195 205 206 208 215 213 204
238 69 55 68 113 129 218 358 291 281 31 55 346 54 281 355 354 351 347 349 340 331 327 326 328 327 302 234 182 187 189 209 190 181 183 197 212 228 160 206 193 206 221 296
93 356 149 265 275 196 292 69 87 69 341 37 297 109 300 6 347 345 337 338 343 335 320 332 339 346 340 14 139 165 159 163 165 144 137 150 171 158 115 88 87 61 65 47
352 5 286 273 19 38 14 58 356 1 11 229 339 71 242 2 350 341 335 332 342 341 337 340 344 343 346 354 12 127 129 136 147 149 137 118 102 93 86 79 76 81 63 45
128 321 31 349 74 116 1 55 131 207 322 295 340 355 270 18 343 344 343 339 339 345 346 340 344 346 354 342 338 105 120 101 103 94 92 90 88 88 89 83 84 90 83 78
117 332 321 144 187 339 8 61 37 256 20 302 285 308 312 342 352 353 358 352 344 345 353 345 352 357 355 14 50 71 82 79 79 75 70 60 62 63 57 65 60 60 70 78
170 79 272 26 121 17 75 158 96 25 30 323 294 206 301 337 343 347 352 348 343 339 356 0 1 356 3 21 50 60 65 67 67 71 72 54 58 42 59 48 56 58 45 54
136 93 263 70 19 168 36 83 87 94 223 219 306 263 38 313 333 337 340 339 342 346 356 3 3 7 16 30 38 52 52 63 65 54 62 66 58 44 57 62 51 56 57 56
170 132 146 125 161 279 228 157 140 144 243 246 183 276 83 10 351 348 341 338 341 350 354 6 15 18 17 19 22 42 48 42 55 68 61 59 55 58 43 59 51 57 58 56
174 344 51 355 68 43 187 171 169 153 113 239 168 261 22 9 4 0 353 343 345 353 1 10 20 23 20 16 25 34 31 45 40 48 56 49 48 59 51 65 66 52 60 51
77 100 176 182 160 137 206 222 198 162 194 212 235 310 353 352 353 349 348 344 348 3 9 12 18 22 18 28 28 27 29 33 40 54 50 45 34 61 61 44 52 48 53 66
101 143 334 311 98 166 234 234 211 196 212 182 208 280 329 330 332 327 317 352 12 13 13 10 13 13 20 31 30 39 43 37 43 62 63 49 52 46 50 57 56 61 51 48
59 147 80 335 349 19 271 246 228 235 210 255 251 261 200 219 342 359 356 355 9 18 17 10 13 15 21 21 34 34 32 31 39 49 40 29 42 48 54 51 43 50 49 45
100 127 84 267 337 344 330 225 186 186 193 171 197 186 280 284 23 2 350 1 7 14 22 17 11 14 14 16 22 37 35 34 43 44 34 26 31 41 40 46 52 50 45 48
119 89 77 204 4 20 242 294 175 200 201 205 266 250 251 224 142 88 30 24 29 22 23 27 16 17 17 16 22 28 36 39 40 39 32 23 26 35 26 42 43 43 36 41
106 115 92 124 191 289 293 200 175 175 249 194 200 212 257 290 148 38 24 47 62 44 30 39 30 27 24 25 16 28 38 37 36 28 23 15 15 26 16 36 35 31 45 52
87 82 107 124 144 203 231 151 147 96 301 194 192 198 123 154 149 217 176 51 79 68 62 41 20 26 37 14 16 33 31 32 28 11 3 1 9 30 24 18 17 21 39 65
130 94 148 177 246 285 237 151 143 88 231 155 173 172 150 156 209 142 162 127 94 61 37 33 38 39 18 0 360 40 36 27 357 351 359 9 2 16 22 7 14 5 13 29
159 147 174 99 98 276 169 89 167 201 63 147 152 160 126 130 145 162 167 164 141 121 54 16 32 37 17 11 4 31 30 355 350 354 9 8 5 8 3 7 9 9 18 33
213 178 173 186 211 244 199 125 193 156 157 183 159 164 155 155 177 185 204 199 171 157 143 85 75 68 35 23 23 21 6 354 345 353 5 1 358 360 360 360 8 14 14 26
243 167 161 119 220 218 210 222 194 182 178 167 172 165 164 174 192 206 216 186 183 175 172 140 132 106 70 32 39 31 353 351 349 359 2 0 7 352 360 349 16 18 13 6
193 142 162 264 266 354 233 213 198 192 179 154 162 173 183 176 198 204 209 201 195 179 167 148 156 141 108 50 42 7 356 349 351 2 0 4 8 0 350 351 335 351 310 233
190 171 169 212 198 167 202 204 182 174 193 192 164 176 195 190 204 189 214 207 182 174 155 159 165 151 154 106 71 4 356 348 0 26 0 360 355 354 0 349 339 347 12 5